Change the Weather History Date:

Monday, December 31, 2007

  Actual Average Record
Temperature  
Mean Temperature 76 °F -  
Max Temperature 83 °F 80 °F 86 °F (2002)
Min Temperature 68 °F 63 °F 59 °F (2005)
Cooling Degree Days 10    
Growing Degree Days 26 (Base 50)    
Moisture  
Dew Point 58 °F    
Average Humidity 58    
Maximum Humidity 73    
Minimum Humidity 36    
Precipitation  
Precipitation 0.00 in 0.01 in - ()
Sea Level Pressure  
Sea Level Pressure 29.92 in    
Wind  
Wind Speed 12 mph ()    
Max Wind Speed 18 mph    
Max Gust Speed 25 mph    
Visibility 8.1 miles    
Events      
Averages and records for this station are not official NWS values.
T = Trace of Precipitation, MM = Missing Value Source: Averaged Metar Reports

Daily Weather History Graph

Daily Weather History Graph

Search for Another Location

Airport or City:

Trip Planner

Search our weather history database for the weather conditions in past years. The results will help you decide how hot, cold, wet, or windy it might be!

Date:

Astronomy

Dec. 31, 2007 Rise Set
Actual Time 5:53 AM CST 5:26 PM CST
Civil Twilight 5:30 AM CST 5:49 PM CST
Nautical Twilight 5:04 AM CST 6:15 PM CST
Astronomical Twilight 4:37 AM CST 6:41 PM CST
Moon No Moon Rise 11:37 AM CST (12/31)
Length of Visible Light 12h 18m
Length of Day
11h 33m
Last Quarter, 46% of the Moon is Illuminated
Dec 31
Last Quarter
Jan 8
New
Jan 15
First Quarter
Jan 22
Full
Jan 29
Last Quarter

Hourly Weather History & Observations

Time (CST) Temp. Heat Index Dew Point Humidity Pressure Visibility Wind Dir Wind Speed Gust Speed Precip Events Conditions
12:00 AM 69.8 °F - 59.0 °F 68% 29.95 in - East 13.8 mph - N/A   Clear
1:00 AM 69.8 °F - 59.0 °F 68% 29.93 in - East 13.8 mph 25.3 mph N/A   Clear
2:00 AM 69.8 °F - 59.0 °F 68% 29.92 in - East 13.8 mph - N/A   Clear
3:00 AM 70 °F - 58 °F 57% 29.76 in 12 mi East 13.8 mph - -   Clear
3:00 AM 69.8 °F - 59.0 °F 68% 29.92 in - East 13.8 mph - N/A   Clear
4:00 AM 68.0 °F - 59.0 °F 73% 29.91 in - ESE 12.7 mph - N/A   Clear
5:00 AM 69.8 °F - 57.2 °F 64% 29.93 in - East 16.1 mph - N/A   Clear
6:00 AM 70 °F - 56 °F 52% 29.83 in 12 mi East 12.7 mph - -   Partly Cloudy
6:00 AM 69.8 °F - 59.0 °F 68% 29.93 in - East 12.7 mph - N/A   Clear
7:00 AM 73.4 °F - 57.2 °F 57% 29.97 in - ESE 13.8 mph - N/A   Clear
8:00 AM 77.0 °F - 57.2 °F 50% 29.99 in - East 11.5 mph - N/A   Clear
9:00 AM 75 °F - 57 °F 44% 29.85 in 12 mi East 13.8 mph - -   Scattered Clouds
9:00 AM 75.2 °F - 57.2 °F 53% 29.99 in 6.2 mi East 13.8 mph - N/A   Mostly Cloudy
10:00 AM 78.8 °F - 55.4 °F 44% 29.98 in 6.2 mi East 18.4 mph - N/A   Mostly Cloudy
11:00 AM 80.6 °F 80.8 °F 57.2 °F 45% 29.97 in 6.2 mi East 15.0 mph - N/A   Scattered Clouds
12:00 PM 79 °F - 57 °F 36% 29.85 in 12 mi East 12.7 mph - -   Scattered Clouds
12:00 PM 78.8 °F - 57.2 °F 47% 29.97 in 6.2 mi East 12.7 mph - N/A   Mostly Cloudy
1:00 PM 78.8 °F - 57.2 °F 47% 29.94 in 6.2 mi East 12.7 mph - N/A   Mostly Cloudy
2:00 PM 80.6 °F 81.1 °F 59.0 °F 48% 29.91 in 6.2 mi East 12.7 mph - N/A   Mostly Cloudy
3:00 PM 81 °F - 60 °F 38% 29.75 in 12 mi Calm Calm - -   Scattered Clouds
3:00 PM 80.6 °F 82.3 °F 64.4 °F 58% 29.90 in 6.2 mi ESE 12.7 mph - N/A   Mostly Cloudy
4:00 PM 75.2 °F - 60.8 °F 61% 29.90 in 6.2 mi ESE 11.5 mph - N/A   Mostly Cloudy
5:00 PM 73.4 °F - 59.0 °F 61% 29.91 in 6.2 mi East 9.2 mph - N/A   Mostly Cloudy
6:00 PM 71 °F - 58 °F 54% 29.81 in 12 mi Calm Calm - -   Scattered Clouds
6:00 PM 71.6 °F - 57.2 °F 60% 29.92 in 6.2 mi East 5.8 mph - N/A   Mostly Cloudy
7:00 PM 71.6 °F - 57.2 °F 60% 29.94 in 6.2 mi East 15.0 mph - N/A   Mostly Cloudy
8:00 PM 69.8 °F - 59.0 °F 68% 29.97 in 6.2 mi East 13.8 mph - N/A   Scattered Clouds
9:00 PM 69 °F - 60 °F 64% 29.87 in 12 mi East 18.4 mph - -   Scattered Clouds
9:00 PM 69.8 °F - 59.0 °F 68% 29.99 in 6.2 mi East 11.5 mph - N/A   Scattered Clouds
10:00 PM 69.8 °F - 60.8 °F 73% 29.99 in 6.2 mi East 11.5 mph - N/A   Scattered Clouds
11:00 PM 68.0 °F - 59.0 °F 73% 29.99 in - ESE 10.4 mph - N/A   Clear